Location: Le Petit-Vavre
(46.5081°N, 1.5239°E)
Time: 17:07:44
(UTC+00:00)

Ariane Rocket - Pass Details

Date: 03 March 2021
Orbit: 759 x 771 km, 98.7° (Epoch: 15 April)

Event Time Altitude Azimuth Distance (km) Brightness Sun altitude
Exits shadow 18:42:04 13° 107° (ESE) 2,083 4.6 -11.0°
Maximum altitude 18:45:18 24° 62° (ENE) 1,562 4.1 -11.5°
Drops below altitude 10° 18:49:20 10° 10° (N) 2,323 5.4 -12.2°
Sets 18:52:01 0° 357° (N) 3,253 6.4 -12.7°
